Location: Gleizolles
(44.4833°N, 6.7667°E)
Time: 17:00:40
(UTC+00:00)

RS-15 - Pass Details

Date: 08 December 2022
Orbit: 1883 x 2162 km, 64.8° (Epoch: 05 February)

Event Time Altitude Azimuth Distance (km) Brightness Sun altitude
Rises 18:47:06 0° 322° (NW) 5,684 10.9 -30.1°
Reaches altitude 10° 18:50:38 10° 325° (NW) 4,663 10.3 -30.8°
Maximum altitude 19:02:54 76° 52° (NE) 2,137 7.9 -32.9°
Enters shadow 19:05:52 57° 119° (ESE) 2,345 8.0 -33.5°
